Weather History for Valparaiso, FL

Change the Weather History Date:

Sunday, December 30, 2012

  Actual Average Record
Temperature  
Mean Temperature 41 °F -  
Max Temperature 54 °F 62 °F 78 °F (1974)
Min Temperature 28 °F 40 °F 12 °F (1983)
Degree Days  
Heating Degree Days 24    
Moisture  
Dew Point 27 °F    
Average Humidity 63    
Maximum Humidity 84    
Minimum Humidity 31    
Precipitation  
Precipitation 0.00 in - - ()
Sea Level Pressure  
Sea Level Pressure 30.40 in    
Wind  
Wind Speed 6 mph (North)    
Max Wind Speed 12 mph    
Max Gust Speed -    
Visibility 10 miles    
Events      
Averages and records for this station are not official NWS values.
T = Trace of Precipitation, MM = Missing Value Source: NWS Daily Summary

Daily Weather History Graph

Daily Weather History Graph

Search for Another Location

Airport:

Trip Planner

Search our weather history database for the weather conditions in past years. The results will help you decide how hot, cold, wet, or windy it might be!

Date:

Astronomy

Dec. 30, 2012 Rise Set
Actual Time 6:42 AM CST 4:55 PM CST
Civil Twilight 6:16 AM CST 5:21 PM CST
Nautical Twilight 5:46 AM CST 5:51 PM CST
Astronomical Twilight 5:16 AM CST 6:21 PM CST
Moon 7:15 PM CST (12/30) 8:00 AM CST (12/30)
Length of Visible Light 11h 05m
Length of Day
10h 12m
Waning Gibbous, 95% of the Moon is Illuminated
Dec 30
Waning Gibbous
Jan 4
Last Quarter
Jan 11
New
Jan 18
First Quarter
Jan 26
Full

Hourly Weather History & Observations

Time (CST) Temp. Windchill Dew Point Humidity Pressure Visibility Wind Dir Wind Speed Gust Speed Precip Events Conditions
12:07 AM 35.6 °F 31.7 °F 28.4 °F 75% 30.34 in 10.0 mi NNW 4.6 mph - N/A   Mostly Cloudy
12:39 AM 35.6 °F 31.7 °F 28.4 °F 75% 30.34 in 10.0 mi North 4.6 mph - N/A   Scattered Clouds
12:55 AM 35.1 °F 31.0 °F 28.0 °F 76% 30.35 in 10.0 mi North 4.6 mph - N/A   Clear
1:55 AM 34.5 °F 28.6 °F 26.8 °F 73% 30.38 in 10.0 mi North 6.9 mph - N/A   Clear
2:55 AM 33.3 °F 27.1 °F 25.5 °F 73% 30.39 in 10.0 mi North 6.9 mph - N/A   Clear
3:55 AM 31.3 °F 25.6 °F 25.2 °F 78% 30.38 in 10.0 mi North 5.8 mph - N/A   Clear
4:55 AM 30.0 °F 24.1 °F 24.8 °F 81% 30.39 in 10.0 mi North 5.8 mph - N/A   Clear
5:55 AM 29.1 °F 25.4 °F 24.4 °F 83% 30.44 in 10.0 mi NW 3.5 mph - N/A   Clear
6:55 AM 28.4 °F 22.2 °F 24.3 °F 84% 30.45 in 10.0 mi North 5.8 mph - N/A   Scattered Clouds
7:55 AM 31.6 °F 24.4 °F 25.2 °F 77% 30.46 in 10.0 mi North 8.1 mph - N/A   Scattered Clouds
8:55 AM 36.9 °F 29.6 °F 24.8 °F 62% 30.49 in 10.0 mi North 10.4 mph - N/A   Scattered Clouds
9:55 AM 40.8 °F 35.0 °F 25.2 °F 54% 30.49 in 10.0 mi North 9.2 mph - N/A   Scattered Clouds
10:55 AM 43.9 °F 38.8 °F 25.2 °F 48% 30.48 in 10.0 mi NNE 9.2 mph - N/A   Scattered Clouds
11:55 AM 47.7 °F - 25.3 °F 42% 30.44 in 10.0 mi ENE 10.4 mph - N/A   Mostly Cloudy
12:55 PM 49.8 °F - 25.7 °F 39% 30.40 in 10.0 mi NNE 6.9 mph - N/A   Mostly Cloudy
1:55 PM 52.9 °F - 24.8 °F 34% 30.37 in 10.0 mi NNE 9.2 mph - N/A   Mostly Cloudy
2:55 PM 54.0 °F - 23.7 °F 31% 30.36 in 10.0 mi NNE 11.5 mph - N/A   Mostly Cloudy
3:55 PM 53.1 °F - 24.8 °F 33% 30.37 in 10.0 mi NNE 10.4 mph - N/A   Scattered Clouds
4:55 PM 49.6 °F - 27.5 °F 42% 30.38 in 10.0 mi North 3.5 mph - N/A   Scattered Clouds
5:55 PM 45.3 °F 44.0 °F 29.7 °F 54% 30.38 in 10.0 mi NNE 3.5 mph - N/A   Mostly Cloudy
6:55 PM 42.3 °F 40.5 °F 30.4 °F 63% 30.39 in 10.0 mi North 3.5 mph - N/A   Mostly Cloudy
7:55 PM 39.0 °F 36.8 °F 30.4 °F 71% 30.41 in 10.0 mi North 3.5 mph - N/A   Mostly Cloudy
8:55 PM 37.9 °F - 30.6 °F 75% 30.41 in 10.0 mi North 2.3 mph - N/A   Scattered Clouds
9:55 PM 37.6 °F - 29.5 °F 73% 30.42 in 10.0 mi NW 2.3 mph - N/A   Scattered Clouds
10:55 PM 34.7 °F - 29.5 °F 81% 30.40 in 10.0 mi NNE 2.3 mph - N/A   Scattered Clouds
11:55 PM 37.0 °F 34.5 °F 29.5 °F 74% 30.38 in 10.0 mi North 3.5 mph - N/A   Scattered Clouds